Погода в Сусанино

Россия / Костромская область     58°08′50″N   41°35′40″E
темп.,
°C
ветер,
м/с
пор.,
м/с
влажн.,
%
обл.,
%
осадки,
мм/ч
давл.,
гПа
погр.,
м
27 октября, ср
ср2700:000юз31095100 0.0 1014292
03:000юз3996100 0.0 1013267
06:000юз41095100 0.0 1012316
09:00+1ююз41189100 0.0 1010456
12:00+3юз51283100 0.0 1008610
15:00+3юз51293100 0.1 1006747
18:00+2зюз51397100 1.6 1006793
21:00+4зюз51195100 1.9 1006909
28 октября, чт
чт2800:00+5з51191100 0.2 1007742
03:00+5з41092100 0.3 1008768
06:00+4зюз41089100 0.1 1007393
09:00+4юз3792100 0.1 1008314
12:00+4зюз1395100 0.4 1009472
15:00+4с3696100 1.1 1011817
18:00+2ссв598489 0.1 1016746
21:00−2ссв410835 0.1 1021578
29 октября, пт
пт2900:00−3ссв38835 0.0 1025461
03:00−3с258412 0.0 1028282
06:00−3в1283100 0.0 102996
09:00−2ю2468100 0.0 1030299
12:000ююз4853100 0.0 1029590
15:00+1ююз51256100 0.0 1027640
18:00+1ююз61661100 0.3 1024631
21:00+3юз6158371 0.3 1023609
30 октября, сб
сб3000:00+3юз51493100 0.0 1022504
03:00+3зюз5149787 0.0 1023478
06:00+3зюз51497100 0.0 1023436
09:00+4зюз4149690 0.0 1023477
12:00+6зюз41392100 0.0 1023546
15:00+7зюз412885 0.0 1023514
18:00+5юз4128940 0.0 1024324
21:00+4юз4119075 0.0 1024280
31 октября, вс
вс3100:00+4юз4129180 0.0 1024294
03:00+4юз41390100 0.0 1023343
06:00+3юз4139276 0.0 1022347
09:00+4юз514917 0.0 1022444
12:00+7юз5138326 0.0 1021516
15:00+7юз511835 0.0 1021555
18:00+6юз41291100 0.0 1022367
21:00+5юз3109431 0.0 1022287